Kars, Turkey

2:50 AM EET on December 05, 2016 (GMT +0200)
Kars

Weather History for LTCF - September, 2012

Change the Weather History Date:

Friday, September 21, 2012

  Actual Average Record
Temperature  
Mean Temperature 58 °F -  
Max Temperature 76 °F - - ()
Min Temperature 39 °F - - ()
Degree Days  
Heating Degree Days 8    
Growing Degree Days 8 (Base 50)    
Moisture  
Dew Point 23 °F    
Average Humidity 24    
Maximum Humidity 49    
Minimum Humidity 6    
Precipitation  
Precipitation 0.00 in - - ()
Sea Level Pressure  
Sea Level Pressure 30.12 in    
Wind  
Wind Speed 3 mph ()    
Max Wind Speed 12 mph    
Max Gust Speed 17 mph    
Visibility 6.1 miles    
Events      
T = Trace of Precipitation, MM = Missing Value Source: Averaged Metar Reports

Daily Weather History Graph

Daily Weather History Graph

Search for Another Location

Airport or City:

Trip Planner

Search our weather history database for the weather conditions in past years. The results will help you decide how hot, cold, wet, or windy it might be!

Date:

Astronomy

Sep. 21, 2012 Rise Set
Actual Time 5:54 AM EEST 6:06 PM EEST
Civil Twilight 5:27 AM EEST 6:33 PM EEST
Nautical Twilight 4:55 AM EEST 7:05 PM EEST
Astronomical Twilight 4:22 AM EEST 7:37 PM EEST
Moon 11:54 AM EEST (9/21) 9:43 PM EEST (9/21)
Length of Visible Light 13h 06m
Length of Day
12h 11m
Waxing Crescent, 34% of the Moon is Illuminated
Sep 21
Waxing Crescent
Sep 22
First Quarter
Sep 30
Full
Oct 8
Last Quarter
Oct 15
New

Hourly Weather History & Observations

Time (EEST) Temp. Dew Point Humidity Pressure Visibility Wind Dir Wind Speed Gust Speed Precip Events Conditions
12:50 AM 48.2 °F 21.2 °F 34% 30.12 in - Variable 2.3 mph - N/A   Clear
1:50 AM 50.0 °F 19.4 °F 30% 30.12 in - Calm Calm - N/A   Clear
3:00 AM 46 °F 24 °F 29%  in 6 mi Calm Calm - -  
3:50 AM 41.0 °F 21.2 °F 45% 30.12 in - Calm Calm - N/A   Clear
4:50 AM 44.6 °F 24.8 °F 46% 30.15 in - Calm Calm - N/A   Clear
5:50 AM 41.0 °F 23.0 °F 49% 30.15 in - Calm Calm - N/A   Clear
7:50 AM 53.6 °F 26.6 °F 35% 30.15 in - Calm Calm - N/A   Clear
8:50 AM 62.6 °F 28.4 °F 27% 30.15 in - Calm Calm - N/A   Clear
9:00 AM 63 °F 28 °F 15%  in 6 mi Calm Calm - -  
9:50 AM 66.2 °F 30.2 °F 26% 30.15 in - Variable 1.2 mph - N/A   Clear
10:50 AM 69.8 °F 28.4 °F 21% 30.15 in - West 5.8 mph - N/A   Clear
11:50 AM 71.6 °F 24.8 °F 17% 30.12 in 6.2 mi Variable 4.6 mph - N/A   Partly Cloudy
12:50 PM 75.2 °F 23.0 °F 14% 30.12 in 6.2 mi Variable 8.1 mph - N/A   Partly Cloudy
1:50 PM 75.2 °F 19.4 °F 12% 30.12 in 6.2 mi SSE 5.8 mph 17.3 mph N/A   Partly Cloudy
2:50 PM 77.0 °F 23.0 °F 13% 30.09 in 6.2 mi Variable 3.5 mph - N/A   Partly Cloudy
3:00 PM 77 °F 21 °F 6%  in 6 mi SSE 3.5 mph - -   Scattered Clouds
3:50 PM 75.2 °F 21.2 °F 13% 30.09 in 6.2 mi South 8.1 mph - N/A   Partly Cloudy
4:50 PM 73.4 °F 21.2 °F 14% 30.09 in 6.2 mi South 9.2 mph - N/A   Partly Cloudy
5:50 PM 69.8 °F 23.0 °F 17% 30.09 in 6.2 mi South 10.4 mph - N/A   Partly Cloudy
6:50 PM 64.4 °F 23.0 °F 21% 30.09 in - South 11.5 mph - N/A   Clear
7:50 PM 62.6 °F 21.2 °F 20% 30.12 in - South 11.5 mph - N/A   Clear
8:50 PM 60.8 °F 23.0 °F 23% 30.12 in - NW 8.1 mph - N/A   Clear
9:00 PM 61 °F 22 °F 12%  in 6 mi NW 8.1 mph - -  
9:50 PM 59.0 °F 23.0 °F 25% 30.12 in - West 8.1 mph - N/A   Clear
10:50 PM 59.0 °F 23.0 °F 25% 30.12 in - West 8.1 mph - N/A   Clear
11:50 PM 55.4 °F 23.0 °F 29% 30.12 in - SW 3.5 mph - N/A   Clear